Zurück zum Katalog

STARLINK-33854

AktivKommunikationVLEO
NORAD 63635·PAYLOAD·🇺🇸 United States

Gestartet Apr 25, 2025 von Cape Canaveral Space Force Station

Loading…

Nächste Überflüge (nächste 24 Stunden)

TLE

AktuellSource: CelesTrak SupGP

Epoche: Sep 14, 2026, 20:50 UTC

1 63635C 25083B   26257.86854167  .00042114  00000+0  15260-2 0  2572
2 63635  43.0018  16.6177 0001551 280.4993  11.8631 15.27544788    18

Verfolge STARLINK-33854 in Echtzeit mit AllMySat

Download on the App Store